Location: Rye
(30.7294°N, 96.4902°W)
Time: 17:41:14
(UTC+00:00)

Tiros 1 despin weight - Pass Details

Date: 13 December 2025
Orbit: 557 x 596 km, 48.2° (Epoch: 10 January)

Event Time Altitude Azimuth Distance (km) Brightness Sun altitude
Rises 00:45:42 0° 280° (W) 2,782 ? -16.8°
Reaches altitude 10° 00:49:01 10° 306° (NW) 1,875 ? -17.5°
Maximum altitude 00:51:15 14° 338° (NNW) 1,638 ? -17.9°
Enters shadow 00:53:09 11° 5° (N) 1,807 ? -18.3°
